Regional Weather Roundup
Issued by NWS

Home | Current Version | Previous Version | Text Only | Print | Product List | Glossary Off
Versions: 1 2 3 4 5 6 7 8 9 10 11 12 13 14 15 16 17 18 19 20 21 22 23 24 25 26 27 28 29 30 31 32 33 34 35 36 37 38 39 40 41 42 43 44 45 46 47 48 49 50

000
ASUS43 KMKX 270500
RWRWI

WISCONSIN REGIONAL WEATHER ROUNDUP
NATIONAL WEATHER SERVICE MILWAUKEE/SULLIVAN WI
1100 PM CST WED NOV 26 2014

NOTE: "FAIR" INDICATES FEW OR NO CLOUDS BELOW 12,000 FEET WITH NO
SIGNIFICANT WEATHER AND/OR OBSTRUCTIONS TO VISIBILITY.

WIZ001-002-006>008-014>016-023>028-270600-
NORTHWEST WISCONSIN

CITY           SKY/WX    TMP DP  RH WIND       PRES   REMARKS
SUPERIOR ARPT  CLEAR      4  -3  70 N8        30.42R WCI  -9
ASHLAND        LGT SNOW  13   8  81 NW7       30.35R WCI   3
HAYWARD        PTCLDY     9   3  77 N9        30.32R WCI  -4
SIREN          PTCLDY    10  -2  60 N8        30.37R WCI  -3
CUMBERLAND     CLOUDY    14   7  73 N13       30.30R WCI   0
RICE LAKE      CLOUDY    15   8  73 N10       30.32R WCI   3
CHETEK         FLURRIES  16  11  80 NW6       30.30R WCI   8
LADYSMITH      CLOUDY    17  12  80 NW13      30.27S WCI   4
EAU CLAIRE     NOT AVBL
MENOMONIE      CLOUDY    20  14  77 NW9       30.31R HAZE    WCI   9
NEW RICHMOND   CLOUDY    15   7  70 N15       30.34R WCI   0
OSCEOLA        MOCLDY    14   4  63 N12       30.39R WCI   1
$$

WIZ003>005-009-010-017-018-270600-
NORTH CENTRAL WISCONSIN

CITY           SKY/WX    TMP DP  RH WIND       PRES   REMARKS
MANITOWISH WTR LGT SNOW  16  14  90 N8        30.19R VSB 3/4 WCI   6
ARBOR VITAE    PTCLDY    17  13  86 N7        30.18R WCI   7
WOODRUFF       PTCLDY    17  13  86 N7        30.18R WCI   7
RHINELANDER    CLOUDY    17  13  84 N7        30.17R WCI   8
EAGLE RIVER    FLURRIES  17  11  78 N9        30.16R WCI   5
LAND O LAKES   LGT SNOW  16  13  86 N8        30.17R WCI   6
PHILLIPS       LGT SNOW  15  12  86 NW6       30.22R WCI   7
TOMAHAWK       LGT SNOW  18  15  88 CALM      30.19R
MEDFORD        FLURRIES  18  14  83 NW12      30.20R WCI   6
MERRILL        CLOUDY    20  16  82 N12G17    30.19R WCI   8
$$

WIZ029-030-035-036-043>047-270600-
CENTRAL WISCONSIN

CITY           SKY/WX    TMP DP  RH WIND       PRES   REMARKS
WAUSAU         CLOUDY    21  15  78 NW8       30.18R WCI  11
MOSINEE        CLOUDY    21  19  93 NW12      30.20R WCI   9
MARSHFIELD     CLOUDY    21  15  78 N16       30.21R WCI   7
STEVENS POINT  CLOUDY    20  18  90 NW6       30.20R WCI  12
WAUPACA        LGT SNOW  25  22  89 W5        30.20R WCI  19
WAUTOMA        NOT AVBL
WISC RAPIDS    CLOUDY    22  18  85 NW8       30.23R WCI  12
CAMP DOUGLAS   CLOUDY    23  23 100 NW8       30.22S WCI  14
$$

WIZ011>013-019>022-031-037>040-048>050-270600-
NORTHEAST WISCONSIN

CITY           SKY/WX    TMP DP  RH WIND       PRES   REMARKS
ANTIGO         CLOUDY    19  17  90 N7        30.15R WCI  10
SHAWANO        CLOUDY    24  21  88 CALM      30.19R
OCONTO         CLOUDY    21  19  93 W5        30.18R WCI  15
STURGEON BAY   CLOUDY    25  19  80 NW10      30.16S WCI  15
GREEN BAY      LGT SNOW  22  19  89 W6        30.19R FOG     WCI  14
MANITOWOC      NOT AVBL
APPLETON       LGT SNOW  19  19 100 W8        30.18R WCI   9
CLINTONVILLE   CLOUDY    23  21  93 NW3       30.18R
OSHKOSH        MOCLDY    19  16  88 MISG      30.19R FOG
$$

WIZ032>034-041-042-053>061-270600-
SOUTHWEST WISCONSIN

CITY           SKY/WX    TMP DP  RH WIND       PRES   REMARKS
LA CROSSE      CLOUDY    26  19  74 NW14      30.28R WCI  14
SPARTA         MOCLDY    24  20  88 NW5       30.26R WCI  18
VIROQUA        CLOUDY    21  21 100 NW8       30.22R WCI  12
BOSCOBEL       CLOUDY    21  18  88 CALM      30.27R FOG
PRAIRIE DU CHI CLOUDY    26  21  83 NW6       30.28R WCI  19
PLATTEVILLE    PTCLDY    21  19  93 CALM      30.23R
$$

WIZ056-057-062-063-064-067-068-270600-
SOUTH CENTRAL WISCONSIN

CITY           SKY/WX    TMP DP  RH WIND       PRES   REMARKS
REEDSBURG      LGT SNOW  19  18  95 NW5       30.22R WCI  13
BARABOO/DELLS  LGT SNOW  19  18  96 W6        30.21R WCI  11
LONE ROCK      NOT AVBL
MINERAL POINT  PTCLDY    21  19  93 NW5       30.21R FOG     WCI  15
MADISON        CLOUDY    16  13  88 CALM      30.21R
MIDDLETON      CLOUDY    15  12  89 CALM      30.21R
WATERTOWN      FAIR      15  14  98 CALM      30.19S FOG
MONROE         PTCLDY    19  18  93 NW6       30.19S FOG     WCI  11
JANESVILLE     PTCLDY    18  16  93 CALM      30.21S FOG
$$

WIZ051-052-058>065-066-070>072-270600-
SOUTHEAST WISCONSIN

CITY           SKY/WX    TMP DP  RH WIND       PRES   REMARKS
MILWAUKEE      PTCLDY    23  17  78 NW9       30.18S WCI  13
WAUKESHA       PTCLDY    19  18  93 NW9       30.19S FOG     WCI   9
MILWAUKEE/TIMM PTCLDY    21  18  86 W6        30.19S FOG     WCI  14
RACINE         CLOUDY    26  19  74 NW9       30.19R WCI  17
BURLINGTON     PTCLDY    18  16  90 NW9       30.19R WCI   7
KENOSHA        CLOUDY    25  20  81 NW12      30.17R HAZE    WCI  14
FOND DU LAC    LGT SNOW  18  15  88 CALM      30.20R FOG
SHEBOYGAN      PTCLDY    19  16  88 W7        30.18S FOG     WCI  10
WEST BEND      PTCLDY    19  16  86 W3        30.18S FOG
JUNEAU         PTCLDY    16  15  94 CALM      30.20F FOG
$$

LSZ147-162-270600-
LAKE SUPERIOR

STATION/POSITION TIME  TEMP    WIND        PRES    WAVE
                       AIR SEA DIR/SP/G            HT/PER
                 (UTC) (F)     (DEG/KT/KT) (MB)    (FT/S)
DEVILS ISLAND    0400   13     340/ 18/ 21 1029.1R
PORT WING        0440   12     330/ 14/ 18 1029.1R
SAXON HARBOR     0400   20     350/ 16/ 20 1025.7R
$$

LMZ867-665-643>646-270600-
LAKE MICHIGAN

STATION/POSITION TIME  TEMP    WIND        PRES    WAVE
                       AIR SEA DIR/SP/G            HT/PER
                 (UTC) (F)     (DEG/KT/KT) (MB)    (FT/S)
CHAMBERS ISLAND  0400   26     300/ 11/ 14 1021.3S
N MID LAKE BUOY  0350   28 42  320/ 12/ 16 1021.4S   1/ 3
NORTHPORT PIER   0402   27     320/ 10/ 17 1021.0S
KEWAUNEE LAKESHO 0400   20     300/  2/  6 1020.9R
SHEBOYGAN LAKESH 0400   21 36  280/  8/  9 1023.3S
PORT WASHINGTON  0400   21     310/ 11/ 16 1022.7R
MILWAUKEE LAKESH 0400   24     300/ 12/ 16   N/A
S MID LAKE BUOY  0350   32 42  260/  2/  4 1021.7R   0
KENOSHA   LAKESH 0400   27     310/ 10/ 12 1021.3R
$$

TC  - TEMPERATURE IN CELSIUS
VSB - VISIBILITY IN STATUTE MILES
WCI - WIND CHILL INDEX
HX  - HEAT INDEX



USA.gov is the U.S. government's official web portal to all federal, state and local government web resources and services.